| time (UTC) | temp F | wind direction | speed MPH | gust MPH | rain 1hr in | rain 24hr in | rain mn in | humidity % | barometer mb |
| 20260902062827 | 61 | 180 | 2.0 | 2.0 | 0.00 | 0.00 | 0.00 | 72 | 1014.9 |
| 20260902061934 | 61 | 192 | 2.0 | 5.0 | 0.00 | 0.00 | 0.00 | 71 | 1014.7 |
| 20260902061706 | 61 | 207 | 2.0 | 0.0 | 0.00 | 0.00 | 0.00 | 71 | 1014.7 |
| 20260902055449 | 62 | 185 | 1.0 | 3.0 | 0.00 | 0.00 | 0.00 | 70 | 1014.8 |
| 20260902054001 | 62 | 206 | 2.0 | 4.0 | 0.00 | 0.00 | 0.00 | 69 | 1014.7 |
| 20260902053446 | 62 | 201 | 2.0 | 3.0 | 0.00 | 0.00 | 0.00 | 68 | 1014.9 |
| 20260902052632 | 63 | 222 | 1.0 | 4.0 | 0.00 | 0.00 | 0.00 | 68 | 1014.7 |
| 20260902050954 | 63 | 177 | 1.0 | 3.0 | 0.00 | 0.00 | 0.00 | 67 | 1014.8 |
| 20260902050451 | 64 | 213 | 1.0 | 4.0 | 0.00 | 0.00 | 0.00 | 66 | 1014.7 |
| 20260902045946 | 64 | 213 | 2.0 | 4.0 | 0.00 | 0.00 | 0.00 | 66 | 1014.8 |
| 20260902045443 | 64 | 213 | 2.0 | 4.0 | 0.00 | 0.00 | 0.00 | 66 | 1014.7 |
| 20260902044941 | 64 | 227 | 2.0 | 4.0 | 0.00 | 0.00 | 0.00 | 65 | 1014.7 |
| 20260902044441 | 64 | 238 | 2.0 | 2.0 | 0.00 | 0.00 | 0.00 | 65 | 1014.8 |
| 20260902043132 | 65 | 237 | 2.0 | 3.0 | 0.00 | 0.00 | 0.00 | 64 | 1014.5 |
| 20260902042334 | 65 | 227 | 4.0 | 11.0 | 0.00 | 0.00 | 0.00 | 63 | 1014.6 |
| 20260902041826 | 65 | 236 | 4.0 | 11.0 | 0.00 | 0.00 | 0.00 | 62 | 1014.5 |
| 20260902040828 | 65 | 229 | 5.0 | 4.0 | 0.00 | 0.00 | 0.00 | 62 | 1014.3 |
| 20260902040822 | 65 | 243 | 5.0 | 10.0 | 0.00 | 0.00 | 0.00 | 62 | 1014.6 |
| 20260902035001 | 66 | 239 | 4.0 | 9.0 | 0.00 | 0.00 | 0.00 | 60 | 1014.0 |
| 20260902034500 | 66 | 250 | 4.0 | 9.0 | 0.00 | 0.00 | 0.00 | 59 | 1013.9 |
| 20260902034006 | 67 | 236 | 5.0 | 4.0 | 0.00 | 0.00 | 0.00 | 59 | 1013.9 |
| 20260902032515 | 67 | 232 | 5.0 | 7.0 | 0.00 | 0.00 | 0.00 | 57 | 1013.6 |
| 20260902031655 | 68 | 245 | 4.0 | 4.0 | 0.00 | 0.00 | 0.00 | 55 | 1013.5 |
| 20260902030055 | 68 | 225 | 4.0 | 5.0 | 0.00 | 0.00 | 0.00 | 53 | 1013.3 |
| 20260902030049 | 68 | 244 | 5.0 | 13.0 | 0.00 | 0.00 | 0.00 | 53 | 1013.4 |
| 20260902024336 | 69 | 240 | 5.0 | 2.0 | 0.00 | 0.00 | 0.00 | 52 | 1013.1 |
| 20260902023453 | 69 | 248 | 6.0 | 4.0 | 0.00 | 0.00 | 0.00 | 51 | 1012.9 |
| 20260902021859 | 70 | 257 | 6.0 | 12.0 | 0.00 | 0.00 | 0.00 | 50 | 1012.8 |
| 20260902021854 | 70 | 224 | 6.0 | 15.0 | 0.00 | 0.00 | 0.00 | 50 | 1012.8 |
| 20260902020900 | 71 | 251 | 6.0 | 12.0 | 0.00 | 0.00 | 0.00 | 50 | 1012.9 |
| 20260902020058 | 72 | 250 | 5.0 | 12.0 | 0.00 | 0.00 | 0.00 | 48 | 1012.8 |
| 20260902015547 | 72 | 229 | 5.0 | 3.0 | 0.00 | 0.00 | 0.00 | 48 | 1012.8 |
| 20260902013713 | 74 | 212 | 7.0 | 4.0 | 0.00 | 0.00 | 0.00 | 45 | 1012.7 |
| 20260902012442 | 75 | 236 | 4.0 | 6.0 | 0.00 | 0.00 | 0.00 | 43 | 1012.7 |
| 20260902011153 | 76 | 238 | 4.0 | 2.0 | 0.00 | 0.00 | 0.00 | 41 | 1012.7 |
| 20260902005804 | 76 | 227 | 5.0 | 2.0 | 0.00 | 0.00 | 0.00 | 41 | 1012.8 |
| 20260902004638 | 77 | 230 | 5.0 | 1.0 | 0.00 | 0.00 | 0.00 | 41 | 1012.8 |
| 20260902003533 | 77 | 240 | 3.0 | 10.0 | 0.00 | 0.00 | 0.00 | 41 | 1012.8 |
| 20260902003527 | 78 | 244 | 2.0 | 3.0 | 0.00 | 0.00 | 0.00 | 40 | 1012.9 |
| 20260902001644 | 78 | 259 | 3.0 | 6.0 | 0.00 | 0.00 | 0.00 | 38 | 1012.9 |
| 20260902000226 | 78 | 226 | 5.0 | 0.0 | 0.00 | 0.00 | 0.00 | 39 | 1013.0 |
| 20260901234850 | 79 | 227 | 5.0 | 0.0 | 0.00 | 0.00 | 0.00 | 38 | 1013.1 |
| 20260901233651 | 79 | 213 | 6.0 | 4.0 | 0.00 | 0.00 | 0.00 | 37 | 1013.2 |
| 20260901232453 | 79 | 247 | 3.0 | 10.0 | 0.00 | 0.00 | 0.00 | 39 | 1013.2 |
| 20260901231957 | 79 | 251 | 4.0 | 7.0 | 0.00 | 0.00 | 0.00 | 39 | 1013.3 |
| 20260901231952 | 79 | 220 | 5.0 | 10.0 | 0.00 | 0.00 | 0.00 | 39 | 1013.3 |
| 20260901225955 | 79 | 236 | 2.0 | 3.0 | 0.00 | 0.00 | 0.00 | 40 | 1013.3 |
| 20260901224732 | 78 | 220 | 5.0 | 10.0 | 0.00 | 0.00 | 0.00 | 41 | 1013.4 |
| 20260901224241 | 79 | 238 | 6.0 | 3.0 | 0.00 | 0.00 | 0.00 | 40 | 1013.5 |
| 20260901222651 | 77 | 244 | 5.0 | 0.0 | 0.00 | 0.00 | 0.00 | 43 | 1013.7 |
| 20260901222647 | 77 | 232 | 2.0 | 4.0 | 0.00 | 0.00 | 0.00 | 44 | 1013.5 |
| 20260901220846 | 78 | 240 | 4.0 | 6.0 | 0.00 | 0.00 | 0.00 | 42 | 1013.8 |
| 20260901215623 | 78 | 227 | 4.0 | 4.0 | 0.00 | 0.00 | 0.00 | 42 | 1013.7 |
| 20260901214647 | 78 | 249 | 6.0 | 11.0 | 0.00 | 0.00 | 0.00 | 42 | 1013.7 |
| 20260901212858 | 77 | 236 | 3.0 | 0.0 | 0.00 | 0.00 | 0.00 | 45 | 1013.9 |
| 20260901211505 | 77 | 186 | 5.0 | 1.0 | 0.00 | 0.00 | 0.00 | 45 | 1013.9 |
| 20260901210336 | 76 | 226 | 5.0 | 10.0 | 0.00 | 0.00 | 0.00 | 47 | 1014.1 |
| 20260901205837 | 77 | 213 | 6.0 | 4.0 | 0.00 | 0.00 | 0.00 | 46 | 1014.2 |
| 20260901204716 | 76 | 230 | 5.0 | 14.0 | 0.00 | 0.00 | 0.00 | 47 | 1014.1 |
| 20260901204223 | 76 | 233 | 5.0 | 6.0 | 0.00 | 0.00 | 0.00 | 45 | 1014.2 |
| 20260901202815 | 75 | 249 | 4.0 | 6.0 | 0.00 | 0.00 | 0.00 | 48 | 1014.3 |
| 20260901201328 | 74 | 191 | 2.0 | 3.0 | 0.00 | 0.00 | 0.00 | 48 | 1014.3 |
| 20260901195910 | 74 | 242 | 5.0 | 10.0 | 0.00 | 0.00 | 0.00 | 48 | 1014.4 |
| 20260901195414 | 74 | 219 | 4.0 | 5.0 | 0.00 | 0.00 | 0.00 | 49 | 1014.6 |
| 20260901195409 | 74 | 244 | 5.0 | 10.0 | 0.00 | 0.00 | 0.00 | 49 | 1014.5 |
| 20260901193436 | 72 | 179 | 4.0 | 9.0 | 0.00 | 0.00 | 0.00 | 52 | 1014.8 |
| 20260901192933 | 71 | 227 | 5.0 | 6.0 | 0.00 | 0.00 | 0.00 | 53 | 1014.9 |
| 20260901191923 | 71 | 239 | 7.0 | 8.0 | 0.00 | 0.00 | 0.00 | 55 | 1014.8 |
| 20260901190023 | 69 | 230 | 4.0 | 11.0 | 0.00 | 0.00 | 0.00 | 59 | 1014.8 |
| 20260901185523 | 69 | 245 | 4.0 | 2.0 | 0.00 | 0.00 | 0.00 | 59 | 1015.0 |
| 20260901184320 | 69 | 238 | 6.0 | 6.0 | 0.00 | 0.00 | 0.00 | 58 | 1015.0 |
| 20260901182933 | 69 | 225 | 3.0 | 5.0 | 0.00 | 0.00 | 0.00 | 57 | 1014.9 |
| 20260901181836 | 69 | 232 | 5.0 | 12.0 | 0.00 | 0.00 | 0.00 | 57 | 1015.1 |
| 20260901181336 | 70 | 216 | 4.0 | 10.0 | 0.00 | 0.00 | 0.00 | 56 | 1015.1 |
| 20260901180843 | 70 | 219 | 3.0 | 1.0 | 0.00 | 0.00 | 0.00 | 56 | 1015.0 |
| 20260901180838 | 71 | 244 | 3.0 | 9.0 | 0.00 | 0.00 | 0.00 | 55 | 1015.0 |
| 20260901174911 | 69 | 194 | 4.0 | 11.0 | 0.00 | 0.00 | 0.00 | 58 | 1014.9 |
| 20260901174907 | 70 | 210 | 4.0 | 11.0 | 0.00 | 0.00 | 0.00 | 56 | 1015.0 |
| 20260901173901 | 68 | 207 | 3.0 | 4.0 | 0.00 | 0.00 | 0.00 | 59 | 1014.9 |
| 20260901172632 | 68 | 167 | 4.0 | 2.0 | 0.00 | 0.00 | 0.00 | 59 | 1014.9 |
| 20260901171313 | 67 | 213 | 5.0 | 11.0 | 0.00 | 0.00 | 0.00 | 60 | 1014.8 |
| 20260901170811 | 67 | 245 | 4.0 | 5.0 | 0.00 | 0.00 | 0.00 | 60 | 1014.6 |
| 20260901170511 | 68 | 179 | 5.0 | 4.0 | 0.00 | 0.00 | 0.00 | 59 | 1014.6 |
| 20260901164203 | 66 | 225 | 3.0 | 7.0 | 0.00 | 0.00 | 0.00 | 62 | 1014.6 |
| 20260901164158 | 66 | 131 | 4.0 | 3.0 | 0.00 | 0.00 | 0.00 | 63 | 1014.5 |
| 20260901162512 | 65 | 213 | 4.0 | 12.0 | 0.00 | 0.00 | 0.00 | 65 | 1014.5 |
| 20260901162018 | 64 | 205 | 4.0 | 4.0 | 0.00 | 0.00 | 0.00 | 66 | 1014.3 |
| 20260901161621 | 64 | 241 | 4.0 | 1.0 | 0.00 | 0.00 | 0.00 | 68 | 1014.2 |
| 20260901160301 | 62 | 246 | 3.0 | 0.0 | 0.00 | 0.00 | 0.00 | 72 | 1014.0 |
| 20260901155508 | 64 | 242 | 3.0 | 10.0 | 0.00 | 0.00 | 0.00 | 69 | 1014.1 |
| 20260901154244 | 61 | 247 | 3.0 | 2.0 | 0.00 | 0.00 | 0.00 | 74 | 1013.6 |
| 20260901152054 | 60 | 244 | 2.0 | 4.0 | 0.00 | 0.00 | 0.00 | 75 | 1013.4 |
| 20260901150551 | 60 | 233 | 4.0 | 2.0 | 0.00 | 0.00 | 0.00 | 75 | 1013.4 |
| 20260901145101 | 60 | 243 | 3.0 | 4.0 | 0.00 | 0.00 | 0.00 | 76 | 1013.2 |
| 20260901143943 | 59 | 175 | 4.0 | 1.0 | 0.00 | 0.00 | 0.00 | 76 | 1013.2 |
| 20260901142559 | 59 | 168 | 3.0 | 3.0 | 0.00 | 0.00 | 0.00 | 76 | 1012.8 |
| 20260901141513 | 59 | 180 | 3.0 | 10.0 | 0.00 | 0.00 | 0.00 | 77 | 1012.5 |
| 20260901141009 | 59 | 194 | 3.0 | 2.0 | 0.00 | 0.00 | 0.00 | 77 | 1012.5 |
| 20260901135441 | 59 | 173 | 2.0 | 9.0 | 0.00 | 0.00 | 0.00 | 78 | 1012.0 |
| 20260901134944 | 59 | 173 | 2.0 | 3.0 | 0.00 | 0.00 | 0.00 | 79 | 1012.2 |
| 20260901134939 | 59 | 161 | 2.0 | 9.0 | 0.00 | 0.00 | 0.00 | 79 | 1012.1 |
| 20260901133922 | 59 | 190 | 3.0 | 1.0 | 0.00 | 0.00 | 0.00 | 79 | 1012.1 |
| 20260901133020 | 58 | 219 | 3.0 | 3.0 | 0.00 | 0.00 | 0.00 | 80 | 1011.9 |
| 20260901131018 | 58 | 225 | 2.0 | 5.0 | 0.00 | 0.00 | 0.00 | 80 | 1011.6 |
| 20260901131013 | 58 | 159 | 2.0 | 6.0 | 0.00 | 0.00 | 0.00 | 80 | 1011.6 |
| 20260901130749 | 58 | 178 | 3.0 | 2.0 | 0.00 | 0.00 | 0.00 | 80 | 1011.6 |
| 20260901124554 | 58 | 202 | 2.0 | 6.0 | 0.00 | 0.00 | 0.00 | 80 | 1011.6 |
| 20260901124049 | 58 | 146 | 2.0 | 1.0 | 0.00 | 0.00 | 0.00 | 80 | 1011.5 |
| 20260901122700 | 58 | 151 | 2.0 | 6.0 | 0.00 | 0.00 | 0.00 | 80 | 1011.6 |
| 20260901122201 | 58 | 179 | 3.0 | 1.0 | 0.00 | 0.00 | 0.00 | 80 | 1011.8 |
| 20260901121349 | 58 | 167 | 3.0 | 1.0 | 0.00 | 0.00 | 0.00 | 79 | 1011.6 |
| 20260901120842 | 58 | 198 | 2.0 | 5.0 | 0.00 | 0.00 | 0.00 | 79 | 1011.6 |
| 20260901115116 | 58 | 184 | 2.0 | 2.0 | 0.00 | 0.00 | 0.00 | 79 | 1011.4 |
| 20260901113959 | 58 | 171 | 2.0 | 2.0 | 0.00 | 0.00 | 0.00 | 79 | 1011.4 |
| 20260901112727 | 58 | 215 | 2.0 | 0.0 | 0.00 | 0.00 | 0.00 | 79 | 1011.4 |
| 20260901111750 | 58 | 201 | 2.0 | 9.0 | 0.00 | 0.00 | 0.00 | 79 | 1011.2 |
| 20260901110743 | 58 | 179 | 2.0 | 1.0 | 0.00 | 0.00 | 0.00 | 78 | 1011.3 |
| 20260901105227 | 59 | 216 | 3.0 | 1.0 | 0.00 | 0.00 | 0.00 | 78 | 1011.3 |
| 20260901103919 | 59 | 211 | 3.0 | 7.0 | 0.00 | 0.00 | 0.00 | 78 | 1011.1 |
| 20260901103422 | 59 | 219 | 3.0 | 2.0 | 0.00 | 0.00 | 0.00 | 79 | 1011.1 |
| 20260901102320 | 58 | 187 | 3.0 | 8.0 | 0.00 | 0.00 | 0.00 | 79 | 1011.1 |
| 20260901101821 | 58 | 198 | 3.0 | 8.0 | 0.00 | 0.00 | 0.00 | 79 | 1010.9 |
| 20260901101317 | 58 | 205 | 2.0 | 1.0 | 0.00 | 0.00 | 0.00 | 79 | 1010.9 |
| 20260901100412 | 59 | 188 | 2.0 | 7.0 | 0.00 | 0.00 | 0.00 | 79 | 1010.9 |
| 20260901100121 | 58 | 205 | 2.0 | 6.0 | 0.00 | 0.00 | 0.00 | 79 | 1011.0 |
| 20260901095646 | 59 | 144 | 2.0 | 9.0 | 0.00 | 0.00 | 0.00 | 79 | 1010.9 |
| 20260901094409 | 59 | 212 | 3.0 | 9.0 | 0.00 | 0.00 | 0.00 | 79 | 1011.0 |
| 20260901093909 | 58 | 219 | 3.0 | 9.0 | 0.00 | 0.00 | 0.00 | 79 | 1011.2 |
| 20260901093409 | 58 | 179 | 2.0 | 6.0 | 0.00 | 0.00 | 0.00 | 79 | 1011.1 |
| 20260901092904 | 58 | 163 | 2.0 | 1.0 | 0.00 | 0.00 | 0.00 | 79 | 1011.1 |
| 20260901091545 | 59 | 135 | 3.0 | 0.0 | 0.00 | 0.00 | 0.00 | 79 | 1011.0 |
| 20260901090208 | 59 | 178 | 2.0 | 9.0 | 0.00 | 0.00 | 0.00 | 79 | 1011.1 |
| 20260901085714 | 59 | 213 | 3.0 | 6.0 | 0.00 | 0.00 | 0.00 | 79 | 1011.2 |
| 20260901084529 | 58 | 185 | 3.0 | 10.0 | 0.00 | 0.00 | 0.00 | 79 | 1011.2 |
| 20260901084034 | 59 | 153 | 3.0 | 2.0 | 0.00 | 0.00 | 0.00 | 79 | 1011.1 |
| 20260901082937 | 59 | 173 | 2.0 | 7.0 | 0.00 | 0.00 | 0.00 | 79 | 1011.2 |
| 20260901082437 | 59 | 163 | 2.0 | 1.0 | 0.00 | 0.00 | 0.00 | 79 | 1011.2 |
| 20260901081031 | 59 | 180 | 2.0 | 11.0 | 0.00 | 0.00 | 0.00 | 79 | 1011.2 |
| 20260901080530 | 59 | 190 | 2.0 | 9.0 | 0.00 | 0.00 | 0.00 | 79 | 1011.2 |
| 20260901080524 | 59 | 183 | 3.0 | 11.0 | 0.00 | 0.00 | 0.00 | 79 | 1011.1 |
| 20260901080231 | 59 | 169 | 3.0 | 9.0 | 0.00 | 0.00 | 0.00 | 79 | 1011.1 |
| 20260901075028 | 59 | 171 | 3.0 | 1.0 | 0.00 | 0.00 | 0.00 | 79 | 1011.1 |
| 20260901075021 | 59 | 204 | 3.0 | 11.0 | 0.00 | 0.00 | 0.00 | 79 | 1011.1 |
| 20260901073321 | 59 | 161 | 3.0 | 9.0 | 0.00 | 0.00 | 0.00 | 79 | 1010.9 |
| 20260901072824 | 59 | 171 | 3.0 | 0.0 | 0.00 | 0.00 | 0.00 | 79 | 1010.9 |
| 20260901071346 | 59 | 171 | 3.0 | 2.0 | 0.00 | 0.00 | 0.00 | 78 | 1011.0 |
| 20260901065954 | 59 | 180 | 3.0 | 7.0 | 0.00 | 0.00 | 0.00 | 78 | 1010.9 |
| 20260901065457 | 59 | 195 | 3.0 | 2.0 | 0.00 | 0.00 | 0.00 | 78 | 1010.9 |
| 20260901064012 | 59 | 202 | 3.0 | 2.0 | 0.00 | 0.00 | 0.00 | 78 | 1011.0 |